Volver al catálogo

COSMOS 836

ActivoMilitarLEO
NORAD 8923·PAYLOAD·🇷🇺 Russia

Lanzado Jun 29, 1976 desde Plesetsk Cosmodrome

Loading…

Próximos Pases (próximas 24 horas)

TLE

ActualizadoSource: Space-Track

Época: Sep 14, 2026, 12:12 UTC

1  8923U 76061A   26257.50881091  .00000108  00000-0  47622-4 0  9990
2  8923  74.0544 171.9572 0017237  24.3798 335.8166 14.34130204623019

Sigue COSMOS 836 en tiempo real con AllMySat

Download on the App Store